"Pseudo-MPEC" for P11JyeN

Created 2023 Sep 23 16:22:20 UT using Find_Orb

Click here for an explanation of pseudo-MPECs

 
 Astrometry: 
     P11JyeN* C2023 09 14p?\SnkKD$ZF+n%$df:mp8AstrometryEm3!eN:OfdHfqX'o6;;A/F51
     P11JyeN* C2023 09 14AMa:tW-?$ttj4shyBkexw%14t/)!/0c$^t1#S+wC.ePredacted;F51
     P11JyeN  C2023 09 14d8u*67'ooi)%L^h\!l@v#w)clickcNLK:BU$[Q.KBjAE_0(]f-shF51
     P11JyeN  C2023 09 14ynWkGttMy4ITl^_U0(EQ'^a/#xO0r=c@5t16H_=GsgherefK;u5CF51
     P11JyeN  C2023 09 14@fJ$(3'Zck,Z/Lp)8`Rw$Sqk/7pK2,n,LsdT,F5Iku*HforT^`:jF51
     P11JyeN  C2023 09 14]C.c-yZXe@qly\!`\j/Me9N3GfsbV1S?j`?$^DyVexplanationjF51

Station data:
(F51) Pan-STARRS 1, Haleakala  (N20.707234 W156.255910)  US/Hawaii.
   Observers J. Bulger, T. Lowe, A. Schultz, M. Willman. Measurers K.
   Chambers, S. Chastel, T. de Boer, L. Denneau, J. Fairlamb, H. Flewelling,
   M. Huber, C.-C. Lin, E. Magnier, Y. Ramanjooloo, R. Wainscoat, R. Weryk.
   1.8-m Ritchey-Chrétien + CCD.

Orbital elements:  P11JyeN
   Perihelion 2023 Mar 10.14041 +/- 234 TT =  3:22:11 (JD 2460013.64041)
Epoch 2023 Sep 14.0 TT = JDT 2460201.5   Earth MOID: 0.4402   Ma: 0.0695
M  51.07638258 +/- 60               (J2000 ecliptic)             AutoNEOCP
n   0.27188594 +/- 0.213            Peri.   77.98246 +/- 90
a   2.35981639 +/- 1.23             Node   160.80868 +/- 28
e   0.4945413 +/- 0.269             Incl.   28.56243 +/- 29
P   3.63                   H 19.80  G  0.15   U 11.7  SR
q 1.19278957 +/- 0.792    Q 3.52684321 +/- 32.4
From 6 observations 2023 Sept. 14 (53.3 min); mean residual 0".07
Residuals in arcseconds: 
230914 F51  .07-  .04-    230914 F51  .12+  .06-    230914 F51  .02-  .17+    
230914 F51  .01-  .05+    230914 F51  .00   .05-    230914 F51  .03-  .07-    

Ephemerides (geocentric):
Date (UTC) HH   RA             Dec           delta  r     elong  mag " sig PA
---- --------  ------------   ------------  ------ ------ -----  --- --------
2023 09 23 16  23 04 30.632   -15 22 23.77  1.2244 2.1922 159.4 22.6  18d 100
2023 09 23 17  23 04 28.602   -15 23 05.78  1.2249 2.1925 159.3 22.6  18d 100
2023 09 23 18  23 04 26.576   -15 23 47.75  1.2253 2.1927 159.3 22.6  18d 100
2023 09 23 19  23 04 24.551   -15 24 29.66  1.2257 2.1930 159.2 22.6  18d 101
2023 09 23 20  23 04 22.529   -15 25 11.52  1.2262 2.1932 159.2 22.6  18d 102
2023 09 23 21  23 04 20.510   -15 25 53.33  1.2266 2.1935 159.1 22.6  18d  85
2023 09 23 22  23 04 18.493   -15 26 35.09  1.2271 2.1937 159.1 22.6  18d  87
2023 09 23 23  23 04 16.479   -15 27 16.80  1.2275 2.1940 159.0 22.6  19d  91
2023 09 24 00  23 04 14.468   -15 27 58.45  1.2280 2.1942 159.0 22.6  20d  94
2023 09 24 01  23 04 12.459   -15 28 40.06  1.2284 2.1945 158.9 22.6  22d  96
2023 09 24 02  23 04 10.452   -15 29 21.61  1.2288 2.1947 158.9 22.6  22d  96
2023 09 24 03  23 04 08.449   -15 30 03.11  1.2293 2.1949 158.8 22.6  23d  95
2023 09 24 04  23 04 06.447   -15 30 44.56  1.2297 2.1952 158.8 22.6  23d  95
2023 09 24 05  23 04 04.449   -15 31 25.96  1.2302 2.1954 158.7 22.6  23d  94
2023 09 24 06  23 04 02.453   -15 32 07.30  1.2306 2.1957 158.6 22.6  24d  94
2023 09 24 07  23 04 00.459   -15 32 48.60  1.2311 2.1959 158.6 22.6  24d  93
2023 09 24 08  23 03 58.468   -15 33 29.84  1.2315 2.1962 158.5 22.6  24d  92
2023 09 24 09  23 03 56.480   -15 34 11.03  1.2320 2.1964 158.5 22.6  24d  92
2023 09 24 10  23 03 54.494   -15 34 52.17  1.2324 2.1967 158.4 22.6  24d  91
2023 09 24 11  23 03 52.511   -15 35 33.26  1.2328 2.1969 158.4 22.6  24d  91
2023 09 24 12  23 03 50.531   -15 36 14.30  1.2333 2.1972 158.3 22.6  24d  91
2023 09 24 13  23 03 48.553   -15 36 55.28  1.2337 2.1974 158.3 22.6  24d  90
2023 09 24 14  23 03 46.578   -15 37 36.22  1.2342 2.1976 158.2 22.6  24d  90
2023 09 24 15  23 03 44.605   -15 38 17.10  1.2346 2.1979 158.2 22.6  24d  90
2023 09 24 16  23 03 42.635   -15 38 57.93  1.2351 2.1981 158.1 22.6  24d  90
2023 09 24 17  23 03 40.668   -15 39 38.71  1.2355 2.1984 158.1 22.6  24d  90
2023 09 24 18  23 03 38.703   -15 40 19.43  1.2360 2.1986 158.0 22.6  24d  90
2023 09 24 19  23 03 36.741   -15 41 00.11  1.2364 2.1989 158.0 22.6  24d  90
2023 09 24 20  23 03 34.781   -15 41 40.74  1.2369 2.1991 157.9 22.6  25d  90
2023 09 24 21  23 03 32.825   -15 42 21.31  1.2373 2.1994 157.9 22.6  25d  90
2023 09 24 22  23 03 30.870   -15 43 01.83  1.2378 2.1996 157.8 22.6  25d  90
2023 09 24 23  23 03 28.919   -15 43 42.30  1.2382 2.1999 157.8 22.6  25d  91
2023 09 25 00  23 03 26.970   -15 44 22.72  1.2387 2.2001 157.7 22.6  26d  91
2023 09 25 01  23 03 25.024   -15 45 03.08  1.2392 2.2003 157.7 22.6  26d  91
2023 09 25 02  23 03 23.080   -15 45 43.40  1.2396 2.2006 157.6 22.6  26d  91
2023 09 25 03  23 03 21.139   -15 46 23.66  1.2401 2.2008 157.6 22.6  27d  92
2023 09 25 04  23 03 19.201   -15 47 03.87  1.2405 2.2011 157.5 22.6  27d  91
2023 09 25 05  23 03 17.265   -15 47 44.03  1.2410 2.2013 157.5 22.6  27d  91
2023 09 25 06  23 03 15.332   -15 48 24.14  1.2414 2.2016 157.4 22.6  27d  91
2023 09 25 07  23 03 13.402   -15 49 04.20  1.2419 2.2018 157.4 22.6  28d  91
2023 09 25 08  23 03 11.474   -15 49 44.20  1.2423 2.2021 157.3 22.6  28d  91
2023 09 25 09  23 03 09.549   -15 50 24.16  1.2428 2.2023 157.3 22.6  28d  90
2023 09 25 10  23 03 07.626   -15 51 04.06  1.2433 2.2025 157.2 22.6  28d  90
2023 09 25 11  23 03 05.707   -15 51 43.91  1.2437 2.2028 157.2 22.6  28d  90
2023 09 25 12  23 03 03.790   -15 52 23.71  1.2442 2.2030 157.1 22.6  28d  89
2023 09 25 13  23 03 01.875   -15 53 03.46  1.2446 2.2033 157.1 22.6  28d  89
2023 09 25 14  23 02 59.964   -15 53 43.15  1.2451 2.2035 157.0 22.6  28d  89
2023 09 25 15  23 02 58.055   -15 54 22.80  1.2455 2.2038 157.0 22.6  28d  89